User: anonymous   Login
Location: Ostrava
(49.8330°N, 18.2830°E)
Time: 08:54:13
(UTC+02:00)
Language:

Explorer 7 - Orbit

View from above orbital plane
View from above orbital plane
View from above satellite
View from above satellite

Ground track
Ground track

The orbit data is extracted from the following two-line orbital elements,

1 00022U 59009A   18114.82318752  .00000170  00000-0  36315-4 0  9998
2 00022  50.2833 181.8583 0141049 142.3923 218.6989 14.94532762107952
Epoch (UTC): 24 April 2018 19:45:23
Eccentricity: 0.0141049
inclination: 50.2833°
perigee height: 485 km
apogee height: 682 km
right ascension of ascending node: 181.8583°
argument of perigee: 142.3923°
revolutions per day: 14.94532762
mean anomaly at epoch: 218.6989°
orbit number at epoch: 10795

The dashed part of the orbit path shows where the satellite is in the earth's shadow,  

DLR